#timestamp,LO_Frequency,Hit 
1498899615.8,286046976.9,N
1498899635.6,286046978.8,N
1498899655.4,286046980.2,N
1498899675.3,286046979.5,N
1498899695.1,286046979.1,N
1498899715.8,286046981.1,N
1498899735.7,286046983.5,N
1498899755.5,286046981.3,N
1498899775.3,286046975.9,N
1498899795.2,286046978.5,N
1498899815.9,286046973.4,N
1498899835.7,286046971.2,N
1498899855.6,286046972.1,N
1498899875.4,286046969.7,N
1498899895.2,286046972.6,N
1498899915.0,286046977.1,N
1498899916.0,286046977.1,N
1498899935.8,286046976.2,N
1498899955.6,286046974.9,N
1498899975.4,286046975.8,N
1498899995.3,286046975.0,N
1498900015.1,286046975.1,N
1498900035.8,286046973.2,N
1498900055.7,286046972.5,N
1498900075.5,286046975.0,N
1498900095.3,286046977.1,N
1498900115.2,286046978.7,N
1498900135.9,286046979.8,N
1498900155.7,286046978.9,N
1498900175.6,286046981.9,N
1498900195.4,286046976.4,N
1498900215.2,286046978.4,N
1498900235.1,286046977.8,N
1498900236.0,286046977.8,N
1498900255.8,286046974.5,N
1498900275.6,286046969.4,N
1498900295.5,286046967.9,N
1498900315.3,286046971.1,N
1498900335.1,286046972.8,N
1498900355.8,286046973.5,N
1498900375.7,286046972.1,N
1498900395.5,286046974.0,N
1498900415.3,286046973.6,N
1498900435.2,286046971.7,N
1498900455.9,286046972.7,N
1498900475.7,286046973.9,N
1498900495.6,286046973.1,N
1498900515.4,286046975.0,N
1498900535.2,286046972.6,N
1498900555.1,286046972.8,N
1498900556.0,286046972.8,N
1498900575.8,286046975.6,N
1498900595.6,286046973.7,N
1498900615.4,286046970.9,N
1498900635.3,286046969.4,N
1498900655.1,286046968.2,N
1498900675.8,286046969.1,N
1498900695.7,286046970.4,N
1498900715.5,286046970.3,N
1498900735.3,286046970.1,N
1498900755.2,286046970.0,N
1498900775.9,286046969.3,N
1498900795.7,286046969.3,N
1498900815.6,286046967.7,N
1498900835.4,286046968.0,N
1498900855.2,286046968.9,N
1498900875.1,286046964.6,N
1498900876.0,286046964.6,N
1498900895.8,286046965.1,N
1498900915.6,286046962.9,N
1498900935.5,286046963.0,N
1498900955.3,286046967.6,N
1498900975.1,286046964.8,N
1498900995.8,286046966.0,N
1498901015.7,286046965.7,N
1498901035.5,286046966.3,N
1498901055.3,286046966.4,N
1498901075.2,286046967.5,N
1498901095.0,286046966.9,N
1498901095.9,286046966.9,N
1498901115.7,286046965.9,N
1498901135.6,286046964.6,N
1498901155.4,286046967.5,N
1498901175.2,286046965.5,N
1498901195.1,286046964.7,N
1498901196.0,286046964.7,N
1498901215.8,286046962.9,N
1498901235.6,286046964.3,N
1498901255.5,286046964.3,N
1498901275.3,286046964.3,N
1498901295.1,286046963.0,N
1498901315.9,286046965.6,N
1498901335.7,286046965.2,N
1498901355.5,286046963.8,N
1498901375.3,286046963.6,N
1498901395.2,286046963.5,N
1498901415.0,286046961.8,N
1498901415.9,286046961.8,N
1498901435.7,286046960.2,N
1498901455.6,286046958.9,N
1498901475.4,286046956.6,N
1498901495.2,286046955.6,N
1498901515.1,286046956.3,N
1498901516.0,286046956.3,N
1498901535.8,286046955.2,N
1498901555.6,286046955.5,N
1498901575.5,286046954.9,N
1498901595.3,286046957.0,N
1498901615.1,286046953.3,N
1498901635.9,286046953.9,N
1498901655.7,286046956.3,N
1498901675.5,286046953.6,N
1498901695.4,286046955.7,N
1498901715.2,286046957.5,N
1498901735.0,286046955.3,N
1498901735.9,286046955.3,N
1498901755.8,286046954.3,N
1498901775.6,286046953.3,N
1498901795.4,286046955.0,N
1498901815.3,286046956.0,N
1498901835.1,286046953.7,N
1498901836.0,286046953.7,N
1498901855.8,286046953.5,N
1498901875.6,286046951.8,N
1498901895.5,286046953.2,N
1498901915.3,286046951.1,N
1498901935.1,286046951.1,N
1498901955.9,286046951.6,N
1498901975.7,286046951.2,N
1498901995.5,286046950.6,N
1498902015.4,286046949.0,N
1498902035.2,286046947.2,N
1498902055.0,286046948.2,N
1498902055.9,286046948.2,N
1498902075.8,286046948.2,N
1498902095.6,286046947.2,N
1498902115.4,286046943.7,N
1498902135.3,286046948.3,N
1498902155.1,286046948.4,N
1498902156.0,286046948.4,N
1498902175.8,286046949.7,N
1498902195.7,286046949.6,N
1498902215.5,286046946.0,N
1498902235.3,286046944.7,N
1498902255.1,286046946.8,N
1498902275.9,286046944.4,N
1498902295.7,286046943.6,N
1498902315.5,286046944.5,N
1498902335.4,286046944.6,N
1498902355.2,286046942.4,N
1498902375.0,286046946.8,N
1498902375.9,286046946.8,N
1498902395.8,286046944.3,N
1498902415.6,286046945.0,N
1498902435.4,286046943.6,N
1498902455.3,286046943.5,N
1498902475.1,286046939.2,N
1498902476.0,286046939.2,N
1498902495.8,286046937.3,N
1498902515.7,286046942.0,N
1498902535.5,286046938.9,N
1498902555.3,286046941.0,N
1498902575.1,286046938.9,N
1498902595.9,286046940.4,N
1498902615.7,286046937.4,N
1498902635.5,286046938.9,N
1498902655.4,286046937.7,N
1498902675.2,286046935.8,N
1498902695.0,286046937.9,N
1498902695.9,286046937.9,N
1498902715.8,286046937.6,N
1498902735.6,286046938.1,N
1498902755.4,286046938.4,N
1498902775.3,286046936.4,N
1498902795.1,286046936.5,N
1498902796.0,286046936.5,N
1498902815.8,286046934.2,N
1498902835.7,286046934.3,N
1498902855.5,286046937.1,N
1498902875.3,286046934.6,N
1498902895.2,286046936.8,N
1498902915.9,286046932.6,N
1498902935.7,286046933.0,N
1498902955.5,286046931.3,N
1498902975.4,286046929.8,N
1498902995.2,286046930.6,N
1498903015.0,286046931.7,N
1498903015.9,286046931.7,N
1498903035.8,286046931.7,N
1498903055.6,286046932.3,N
1498903075.4,286046929.0,N
1498903095.3,286046928.4,N
1498903115.1,286046930.7,N
1498903135.8,286046930.6,N
1498903155.7,286046928.9,N
1498903175.5,286046926.9,N
1498903195.3,286046925.7,N
